STARLINK-11546, 62835

Orbit data source: Space-Track

STARLINK-11546, 62835 is a payload satellite owned by SpaceX/Seattle (US) in LEO that was launched on Mon, 27 Jan 2025 UTC via an FALCON 9 launch vehicle from the Air Force Eastern Test Range (AFETR). Payload-class satellites include a variety of spacecraft equipped with specific instruments for various scientific and technological missions. These include communications satellites like Starlink; space stations such as the ISS; scientific satellites like the Hubble; Earth observation satellites from companies like Planet Labs, Umbra, and HawkEye 360; GPS; miniature CubeSats for education and research; and military/defense satellites.

Loading next visibility...
Identifier
62835, 2025-019G
Orbit
LEO
Country
Flag of USUS
Related business
Manufacturer
SpaceX/Seattle
Mission
Operational Commercial Communications
Bus & Motor
STARLINK V2MD, Unknown motor
Mass
960 kg wet, ~910 kg dry
Launch date (UTC)
2025-01-27 (2 years ago)
Launch vehicle
FALCON 9
Launch site
Air Force Eastern Test Range (AFETR)
Object type
Payload
Rocket body
Debris
Shape & HBR
Box + 2 Pan, 18.1 m
Radar Cross Section
36.964 m², Large (>1 m²)

Expand to show TLE details & history
Last TLE update: 7 hours ago

TLE from 7 hours ago
0 STARLINK-11546
1 62835U 25019G   26247.85961817  .00130593  00000-0  10046-2 0  9991
2 62835  43.0002 306.5308 0000569 353.2833   6.8027 15.70856440 92056
Epoch: 2026-09-04T20:37Z
TLE epoch observation values (Epoch: 2026-09-04T20:37:51.009Z)
Latitude
-0.00003°
Longitude
13.09084°
Altitude
355.839 km
Speed
7.698 km/s
True Right ascension
20h 26m 07s
True Declination
0° 00' 00"
Sunlit
Object was in full shadow at epoch
Visualization orbit readout
Latitude
Unknown
Longitude
Unknown
Altitude
Unknown
Speed
Unknown
Apparent Right ascension
Unknown
Apparent Declination
Unknown
Sunlit
N/A
Visualization observer readout
Local Sidereal Time
19:49:40
Azimuth
Unknown
Elevation
Unknown
Doppler factor
Unknown
Orbital elements
Apogee altitude
358.813 km
Perigee altitude
358.046 km
Semi-major axis
6,736.567 km
Eccentricity
0.00006
Inclination
43.0002°
RAAN
306.5308°
Arg. of periapsis
353.2833°
True anomaly
6.80347°
Mean anomaly
6.8027°
Eccentric anomaly
6.80309°
Mean motion
3.92541 °/min
Orbital period
91.71 mins
BSTAR
0.0010046
Loading maneuver chart data...
Computing Atmospheric mass density...
Loading historical data...
Loading historical data...
Loading historical data...
Loading historical data...
Loading historical data...
Loading historical data...
Loading historical data...

Documentation

Showing up to 5 results
|